Total_Precipitation_Accumulation
0.18 0.17 0.13 0.14 0.12 0.11 0.11 0.09 0.05 0.03 0.02 0.01 0.00 0.00 0.00 0.00 0.00 0.00 0.00 0.00 0.00 0.01 0.02 0.04 0.09 0.13 0.17 0.22 0.25 0.26 0.23 0.18 0.15 0.15 0.14 0.13 0.13 0.14 0.15 0.17 0.18 0.19 0.19
0.17 0.17 0.15 0.13 0.11 0.09 0.09 0.08 0.06 0.04 0.03 0.02 0.01 0.00 0.00 0.00 0.00 0.00 0.00 0.00 0.00 0.00 0.01 0.04 0.10 0.16 0.22 0.27 0.31 0.31 0.26 0.21 0.18 0.17 0.16 0.15 0.15 0.16 0.17 0.19 0.20 0.20 0.21
0.20 0.19 0.17 0.14 0.11 0.10 0.09 0.08 0.08 0.07 0.04 0.03 0.02 0.01 0.01 0.01 0.00 0.00 0.00 0.00 0.00 0.00 0.01 0.03 0.09 0.15 0.22 0.28 0.31 0.33 0.33 0.29 0.25 0.21 0.19 0.19 0.18 0.19 0.21 0.23 0.24 0.25 0.26
0.28 0.26 0.23 0.19 0.17 0.14 0.12 0.10 0.09 0.09 0.06 0.05 0.04 0.03 0.02 0.01 0.01 0.01 0.01 0.01 0.01 0.01 0.01 0.02 0.04 0.09 0.16 0.21 0.26 0.32 0.37 0.37 0.33 0.30 0.27 0.25 0.24 0.25 0.27 0.29 0.30 0.32 0.33
0.35 0.30 0.26 0.27 0.26 0.21 0.16 0.14 0.11 0.11 0.10 0.08 0.07 0.05 0.03 0.02 0.01 0.01 0.01 0.01 0.02 0.01 0.02 0.02 0.02 0.03 0.07 0.12 0.19 0.29 0.39 0.45 0.42 0.38 0.37 0.37 0.36 0.36 0.37 0.39 0.40 0.41 0.43
0.43 0.39 0.33 0.31 0.32 0.29 0.23 0.20 0.18 0.16 0.13 0.12 0.10 0.06 0.04 0.03 0.02 0.02 0.02 0.02 0.02 0.02 0.02 0.02 0.03 0.03 0.03 0.08 0.16 0.25 0.37 0.44 0.47 0.45 0.44 0.46 0.47 0.47 0.48 0.51 0.51 0.50 0.50
0.53 0.49 0.43 0.40 0.38 0.37 0.34 0.31 0.29 0.25 0.21 0.20 0.18 0.11 0.06 0.04 0.03 0.02 0.02 0.02 0.02 0.02 0.03 0.03 0.04 0.05 0.07 0.09 0.14 0.19 0.25 0.34 0.45 0.50 0.51 0.51 0.52 0.55 0.59 0.61 0.65 0.65 0.64
0.72 0.62 0.53 0.49 0.44 0.40 0.39 0.37 0.37 0.34 0.31 0.30 0.27 0.23 0.12 0.06 0.03 0.03 0.03 0.03 0.03 0.04 0.04 0.05 0.06 0.08 0.09 0.12 0.12 0.12 0.15 0.22 0.36 0.52 0.56 0.54 0.53 0.56 0.63 0.70 0.75 0.79 0.80
0.94 0.85 0.72 0.63 0.56 0.48 0.42 0.42 0.45 0.44 0.39 0.34 0.31 0.33 0.25 0.12 0.08 0.05 0.05 0.05 0.06 0.06 0.06 0.07 0.08 0.10 0.10 0.10 0.10 0.10 0.11 0.14 0.23 0.40 0.56 0.61 0.62 0.65 0.72 0.81 0.88 0.97 1.00
1.09 1.02 0.94 0.83 0.72 0.64 0.53 0.50 0.54 0.54 0.54 0.47 0.40 0.34 0.31 0.26 0.25 0.15 0.08 0.08 0.09 0.09 0.09 0.10 0.10 0.11 0.12 0.12 0.13 0.15 0.18 0.22 0.28 0.45 0.67 0.80 0.88 0.97 1.06 1.14 1.23 1.32 1.32
1.21 1.13 1.05 0.99 0.88 0.79 0.72 0.67 0.64 0.65 0.63 0.59 0.53 0.48 0.46 0.40 0.35 0.34 0.22 0.13 0.13 0.14 0.14 0.13 0.13 0.12 0.13 0.14 0.16 0.23 0.31 0.36 0.45 0.60 0.80 1.00 1.16 1.30 1.42 1.51 1.59 1.69 1.77
1.13 1.07 1.03 0.98 0.92 0.87 0.81 0.76 0.74 0.72 0.70 0.66 0.62 0.58 0.58 0.54 0.46 0.47 0.42 0.29 0.25 0.22 0.22 0.22 0.21 0.20 0.20 0.21 0.24 0.33 0.38 0.43 0.53 0.67 0.89 1.10 1.24 1.34 1.45 1.57 1.66 1.73 1.86
0.98 0.94 0.93 0.88 0.86 0.84 0.85 0.82 0.80 0.76 0.75 0.73 0.69 0.64 0.60 0.54 0.51 0.55 0.56 0.45 0.34 0.26 0.25 0.26 0.26 0.28 0.30 0.33 0.38 0.47 0.50 0.56 0.64 0.76 0.93 1.09 1.15 1.13 1.13 1.19 1.31 1.43 1.52
0.89 0.88 0.90 0.88 0.87 0.84 0.81 0.80 0.78 0.76 0.77 0.73 0.71 0.68 0.65 0.59 0.57 0.59 0.62 0.68 0.64 0.50 0.41 0.37 0.37 0.43 0.47 0.51 0.57 0.64 0.60 0.67 0.67 0.72 0.82 0.93 0.97 0.89 0.82 0.87 0.97 1.08 1.18
0.87 0.85 0.87 0.85 0.83 0.80 0.77 0.76 0.73 0.69 0.68 0.67 0.65 0.66 0.65 0.60 0.59 0.61 0.66 0.76 0.92 0.90 0.72 0.58 0.57 0.61 0.63 0.64 0.69 0.63 0.55 0.65 0.68 0.68 0.71 0.75 0.76 0.73 0.70 0.70 0.74 0.78 0.83
0.79 0.78 0.78 0.78 0.75 0.72 0.70 0.69 0.65 0.61 0.62 0.60 0.59 0.62 0.63 0.62 0.64 0.67 0.74 0.82 0.93 1.06 1.00 0.77 0.68 0.68 0.69 0.68 0.70 0.58 0.52 0.61 0.58 0.58 0.59 0.60 0.60 0.59 0.59 0.61 0.65 0.67 0.68
0.67 0.65 0.67 0.67 0.64 0.61 0.58 0.58 0.57 0.56 0.56 0.56 0.55 0.57 0.58 0.61 0.68 0.72 0.79 0.87 0.95 1.05 1.08 0.91 0.75 0.68 0.66 0.61 0.55 0.46 0.40 0.39 0.38 0.46 0.46 0.44 0.46 0.48 0.48 0.51 0.55 0.59 0.61
0.64 0.61 0.60 0.61 0.58 0.54 0.51 0.50 0.51 0.52 0.53 0.55 0.56 0.58 0.60 0.64 0.73 0.79 0.85 0.90 0.93 0.93 0.93 0.85 0.70 0.60 0.54 0.47 0.41 0.35 0.30 0.27 0.26 0.34 0.35 0.34 0.36 0.38 0.37 0.39 0.43 0.50 0.55
0.66 0.64 0.60 0.60 0.57 0.54 0.52 0.51 0.51 0.51 0.52 0.55 0.58 0.62 0.66 0.70 0.74 0.75 0.74 0.74 0.73 0.70 0.69 0.67 0.59 0.51 0.45 0.40 0.36 0.31 0.25 0.23 0.21 0.23 0.25 0.25 0.29 0.33 0.34 0.36 0.40 0.43 0.44
0.58 0.60 0.59 0.59 0.59 0.58 0.57 0.56 0.57 0.59 0.62 0.65 0.69 0.71 0.74 0.74 0.73 0.70 0.68 0.64 0.61 0.59 0.57 0.58 0.57 0.50 0.45 0.39 0.37 0.33 0.28 0.22 0.20 0.19 0.22 0.23 0.28 0.33 0.33 0.30 0.27 0.25 0.25
0.52 0.53 0.54 0.56 0.61 0.64 0.67 0.68 0.69 0.73 0.77 0.79 0.78 0.76 0.74 0.76 0.73 0.68 0.63 0.59 0.57 0.58 0.61 0.64 0.62 0.52 0.41 0.35 0.31 0.26 0.26 0.25 0.23 0.22 0.24 0.24 0.24 0.23 0.22 0.21 0.21 0.20 0.22
0.55 0.56 0.61 0.65 0.69 0.76 0.96 0.96 0.89 0.86 0.86 0.82 0.79 0.73 0.68 0.68 0.63 0.61 0.58 0.57 0.59 0.64 0.72 0.75 0.65 0.48 0.32 0.26 0.26 0.30 0.35 0.40 0.34 0.21 0.23 0.24 0.21 0.21 0.19 0.19 0.24 0.26 0.27
0.65 0.69 0.73 0.81 0.88 0.96 1.06 0.97 0.89 0.77 0.74 0.71 0.65 0.59 0.54 0.50 0.49 0.45 0.48 0.53 0.55 0.61 0.62 0.56 0.47 0.34 0.28 0.28 0.38 0.47 0.44 0.42 0.32 0.19 0.24 0.27 0.24 0.23 0.20 0.22 0.26 0.25 0.26
0.80 0.88 0.94 0.96 0.96 0.96 0.92 0.78 0.70 0.59 0.54 0.51 0.46 0.41 0.37 0.35 0.35 0.37 0.40 0.48 0.44 0.41 0.40 0.37 0.35 0.33 0.33 0.35 0.45 0.56 0.52 0.45 0.33 0.26 0.27 0.31 0.25 0.24 0.22 0.22 0.25 0.24 0.27
0.89 0.89 0.86 0.80 0.73 0.67 0.61 0.49 0.40 0.34 0.32 0.30 0.28 0.27 0.27 0.25 0.31 0.43 0.47 0.48 0.38 0.30 0.32 0.37 0.41 0.42 0.43 0.40 0.40 0.50 0.55 0.57 0.46 0.30 0.25 0.25 0.23 0.23 0.24 0.23 0.24 0.27 0.27
0.68 0.59 0.49 0.40 0.35 0.31 0.30 0.30 0.28 0.22 0.20 0.19 0.19 0.21 0.27 0.29 0.40 0.50 0.46 0.44 0.36 0.31 0.34 0.37 0.35 0.32 0.31 0.31 0.34 0.38 0.55 0.78 0.63 0.41 0.22 0.27 0.31 0.35 0.47 0.26 0.22 0.22 0.22